Hebron, KY

4:06 AM EST on February 13, 2016 (GMT -0500)
Cincinnati-Northern KY International

Weather History for KCVG - July, 2013

Change the Weather History Date:

Tuesday, July 16, 2013

  Actual Average Record
Temperature  
Mean Temperature 82 °F 76 °F  
Max Temperature 93 °F 86 °F 99 °F (1988)
Min Temperature 70 °F 66 °F 52 °F (1945)
Degree Days  
Heating Degree Days 0 0  
Month to date heating degree days 0 0  
Since 1 June heating degree days 1 15  
Since 1 July heating degree days 0 0  
Cooling Degree Days 17 11  
Month to date cooling degree days 171 174  
Year to date cooling degree days 549 494  
Since 1 June cooling degree days 410 400  
Growing Degree Days 32 (Base 50)    
Moisture  
Dew Point 71 °F    
Average Humidity 71    
Maximum Humidity 93    
Minimum Humidity 49    
Precipitation  
Precipitation T in 0.12 in 1.48 in (1872)
Month to date precipitation 4.04 1.93  
Year to date precipitation 27.94 24.55  
Snow  
Snow 0.00 in 0.00 in 0.00 in ()
Month to date snowfall 0.0 0.0  
Since 1 June snowfall 0.0 0.0  
Since 1 July snowfall 0.0 0.0  
Snow Depth 0.00 in    
Sea Level Pressure  
Sea Level Pressure 30.28 in    
Wind  
Wind Speed 1 mph (WNW)    
Max Wind Speed 13 mph    
Max Gust Speed 21 mph    
Visibility 10 miles    
Events Rain    
T = Trace of Precipitation, MM = Missing Value Source: NWS Daily Summary

Daily Weather History Graph

Daily Weather History Graph

Search for Another Location

Airport or City:

Trip Planner

Search our weather history database for the weather conditions in past years. The results will help you decide how hot, cold, wet, or windy it might be!

Date:

Astronomy

Jul. 16, 2013 Rise Set
Actual Time 6:26 AM EDT 9:02 PM EDT
Civil Twilight 5:54 AM EDT 9:34 PM EDT
Nautical Twilight 5:16 AM EDT 10:12 PM EDT
Astronomical Twilight 4:32 AM EDT 10:56 PM EDT
Moon 2:44 PM EDT (7/16) 12:53 AM EDT (7/16)
Length of Visible Light 15h 39m
Length of Day
14h 36m
First Quarter, 56% of the Moon is Illuminated
Jul 16
First Quarter
Jul 22
Full
Jul 29
Last Quarter
Aug 6
New
Aug 14
First Quarter

Hourly Weather History & Observations

Time (EDT) Temp. Heat Index Dew Point Humidity Pressure Visibility Wind Dir Wind Speed Gust Speed Precip Events Conditions
12:52 AM 77.0 °F - 70.0 °F 79% 30.27 in 10.0 mi Calm Calm - N/A   Clear
1:52 AM 73.9 °F - 70.0 °F 87% 30.27 in 10.0 mi Calm Calm - N/A   Clear
2:52 AM 79.0 °F - 70.0 °F 74% 30.27 in 10.0 mi Calm Calm - N/A   Clear
3:52 AM 75.9 °F - 70.0 °F 82% 30.27 in 10.0 mi Calm Calm - N/A   Clear
4:52 AM 73.0 °F - 70.0 °F 90% 30.27 in 10.0 mi Calm Calm - N/A   Clear
5:52 AM 73.0 °F - 71.1 °F 93% 30.29 in 10.0 mi Calm Calm - N/A   Clear
6:52 AM 71.1 °F - 70.0 °F 96% 30.30 in 6.0 mi Calm Calm - N/A   Partly Cloudy
7:52 AM 78.1 °F - 73.0 °F 84% 30.31 in 10.0 mi Calm Calm - N/A   Partly Cloudy
8:52 AM 82.0 °F 86.3 °F 71.1 °F 69% 30.32 in 10.0 mi Calm Calm - N/A   Clear
9:52 AM 86.0 °F 90.7 °F 70.0 °F 59% 30.33 in 10.0 mi Calm Calm - N/A   Clear
10:52 AM 87.1 °F 92.8 °F 71.1 °F 59% 30.33 in 10.0 mi South 3.5 mph - N/A   Partly Cloudy
11:52 AM 87.1 °F 92.0 °F 70.0 °F 57% 30.32 in 10.0 mi Calm Calm - N/A   Scattered Clouds
12:52 PM 90.0 °F 96.4 °F 71.1 °F 54% 30.31 in 10.0 mi NW 3.5 mph - N/A   Mostly Cloudy
1:52 PM 87.1 °F 92.0 °F 70.0 °F 57% 30.30 in 10.0 mi Calm Calm - N/A   Overcast
2:52 PM 90.0 °F 96.4 °F 71.1 °F 54% 30.28 in 10.0 mi West 6.9 mph - N/A   Mostly Cloudy
3:52 PM 90.0 °F 95.4 °F 70.0 °F 52% 30.27 in 10.0 mi Calm Calm - N/A   Scattered Clouds
4:52 PM 91.0 °F 96.6 °F 70.0 °F 50% 30.26 in 10.0 mi Variable 4.6 mph - N/A   Mostly Cloudy
5:52 PM 90.0 °F 93.6 °F 68.0 °F 48% 30.27 in 9.0 mi Calm Calm - 0.00 in Rain Light Rain
6:52 PM 86.0 °F 93.8 °F 73.9 °F 67% 30.25 in 9.0 mi Calm Calm - 0.00 in   Mostly Cloudy
7:52 PM 87.1 °F 96.3 °F 75.0 °F 67% 30.26 in 8.0 mi Calm Calm - N/A   Scattered Clouds
8:52 PM 87.1 °F 91.3 °F 69.1 °F 55% 30.26 in 8.0 mi Calm Calm - N/A   Mostly Cloudy
9:52 PM 82.0 °F 87.4 °F 73.0 °F 74% 30.26 in 10.0 mi NNW 4.6 mph - N/A   Scattered Clouds
10:52 PM 79.0 °F - 73.0 °F 82% 30.27 in 9.0 mi Calm Calm - N/A   Mostly Cloudy
11:52 PM 77.0 °F - 72.0 °F 84% 30.27 in 9.0 mi Calm Calm - N/A   Partly Cloudy